This is the latest recevied weather packets stored in our database for station/object KE4LOJ. If no packets are shown the sender has not sent any weather packets the latest 10 day(s).
| Time | Temp. | Humidity | Pressure | Rain* | Wind** | Luminosity | Snow |
|---|---|---|---|---|---|---|---|
| 1778028812 | 22.78° C | 64% | 1016.4 hPa | 0 mm | - | 0 W/m² | - |
| 1778028507 | 22.78° C | 63% | 1016.4 hPa | 0 mm | - | 0 W/m² | - |
| 1778028205 | 22.78° C | 63% | 1016.1 hPa | 0 mm | - | 0 W/m² | - |
| 1778027901 | 23.33° C | 62% | 1016.5 hPa | 0 mm | - | 0 W/m² | - |
| 1778027598 | 23.33° C | 62% | 1016 hPa | 0 mm | - | 0 W/m² | - |
| 1778027294 | 23.33° C | 61% | 1016.1 hPa | 0 mm | - | 0 W/m² | - |
| 1778026991 | 23.33° C | 60% | 1016.1 hPa | 0 mm | - | 0 W/m² | - |
| 1778026686 | 23.33° C | 60% | 1016.2 hPa | 0 mm | - | 0 W/m² | - |
| 1778026384 | 23.89° C | 59% | 1016 hPa | 0 mm | - | 0 W/m² | - |
| 1778026080 | 23.89° C | 58% | 1015.9 hPa | 0 mm | - | 1 W/m² | - |
| 1778025778 | 23.89° C | 57% | 1016.2 hPa | 0 mm | - | 2 W/m² | - |
| 1778025475 | 23.89° C | 56% | 1016 hPa | 0 mm | - | 3 W/m² | - |
| 1778025172 | 23.89° C | 56% | 1015.8 hPa | 0 mm | - | 6 W/m² | - |
| 1778024869 | 24.44° C | 55% | 1016.1 hPa | 0 mm | - | 10 W/m² | - |
| 1778024567 | 24.44° C | 54% | 1016 hPa | 0 mm | - | 13 W/m² | - |
| 1778024263 | 24.44° C | 53% | 1015.9 hPa | 0 mm | - | 18 W/m² | - |
| 1778023962 | 24.44° C | 54% | 1015.9 hPa | 0 mm | - | 23 W/m² | - |
| 1778023658 | 24.44° C | 53% | 1015.7 hPa | 0 mm | - | 27 W/m² | - |
| 1778023356 | 25° C | 55% | 1015.7 hPa | 0 mm | - | 31 W/m² | - |
| 1778023052 | 25° C | 55% | 1015.7 hPa | 0 mm | - | 34 W/m² | - |
| 1778022751 | 25° C | 55% | 1015.7 hPa | 0 mm | - | 40 W/m² | - |
| 1778022449 | 25° C | 55% | 1015.7 hPa | 0 mm | - | 44 W/m² | - |
| 1778022145 | 25.56° C | 54% | 1015.7 hPa | 0 mm | - | 49 W/m² | - |
| 1778021842 | 25.56° C | 54% | 1015.7 hPa | 0 mm | - | 53 W/m² | - |
| 1778021539 | 25.56° C | 53% | 1015.7 hPa | 0 mm | - | 59 W/m² | - |
* Rain latest hour (hover to see other rain measurements)
** Current wind speed in m/s (hover to see current wind gust speed)